FW9105 Weather Reports


Display with metric or nautical units.
time (UTC)temp
F
wind
direction
speed
MPH
gust
MPH
rain 1hr
in
rain 24hr
in
rain mn
in
humidity
%
barometer
mb
20260505073001 57 288 0.0 4.0 0.00 0.00 0.00 62 1008.3
20260505071459 57 215 0.0 0.0 0.00 0.00 0.00 61 1008.4
20260505070003 57 52 0.0 2.0 0.00 0.00 0.00 61 1008.2
20260505064500 58 155 2.0 5.0 0.00 0.00 0.00 60 1008.3
20260505054500 59 169 2.0 4.0 0.00 0.00 0.00 59 1008.5
20260505053001 59 176 2.0 3.0 0.00 0.00 0.00 59 1008.8
20260505051500 59 175 2.0 3.0 0.00 0.00 0.00 59 1008.8
20260505041503 60 198 3.0 4.0 0.00 0.00 0.00 59 1008.8
20260505040005 60 171 2.0 4.0 0.00 0.00 0.00 59 1008.7
20260505034501 60 169 2.0 3.0 0.00 0.00 0.00 58 1008.8
20260505033001 60 174 1.0 3.0 0.00 0.00 0.00 59 1008.9
20260505031501 60 180 1.0 3.0 0.00 0.00 0.00 58 1008.9
20260505030001 60 167 0.0 1.0 0.00 0.00 0.00 59 1008.8
20260505024501 60 146 0.0 2.0 0.00 0.00 0.00 60 1008.9
20260505023001 60 146 0.0 2.0 0.00 0.00 0.00 61 1008.8
20260505021500 61 144 0.0 2.0 0.00 0.00 0.00 60 1008.8
20260505020005 61 172 1.0 2.0 0.00 0.00 0.00 60 1008.8
20260505014501 62 181 1.0 2.0 0.00 0.00 0.00 59 1008.4
20260505013000 62 181 0.0 2.0 0.00 0.00 0.00 59 1008.4
20260505011500 62 181 1.0 2.0 0.00 0.00 0.00 58 1008.2
20260505010005 63 180 0.0 2.0 0.00 0.00 0.00 59 1008.2
20260505003000 64 180 1.0 2.0 0.00 0.00 0.00 56 1007.8
20260505001502 65 180 0.0 0.0 0.00 0.00 0.00 53 1007.8
20260505000000 66 180 0.0 0.0 0.00 0.00 0.00 51 1007.8
20260504234500 67 180 0.0 0.0 0.00 0.00 0.00 50 1007.7
20260504232959 67 180 0.0 0.0 0.00 0.00 0.00 49 1007.7
20260504231500 67 180 1.0 3.0 0.00 0.00 0.00 49 1007.7
20260504230000 67 173 1.0 2.0 0.00 0.00 0.00 49 1007.7
20260504224459 68 173 2.0 3.0 0.00 0.00 0.00 48 1007.8
20260504223000 68 204 2.0 4.0 0.00 0.00 0.00 47 1007.7
20260504221500 68 175 0.0 2.0 0.00 0.00 0.00 46 1007.7
20260504220003 68 187 1.0 3.0 0.00 0.00 0.00 47 1007.7
20260504214500 68 173 0.0 2.0 0.00 0.00 0.00 48 1007.8
20260504213002 68 205 1.0 3.0 0.00 0.00 0.00 52 1007.8
20260504210003 69 202 1.0 3.0 0.00 0.00 0.00 51 1007.8
20260504203003 68 191 1.0 3.0 0.00 0.00 0.00 55 1008.0
20260504201502 68 185 1.0 3.0 0.00 0.00 0.00 54 1008.0
20260504191501 70 167 1.0 3.0 0.00 0.00 0.00 49 1008.5
20260504190002 70 154 2.0 5.0 0.00 0.00 0.00 48 1008.8
20260504184500 70 173 2.0 4.0 0.00 0.00 0.00 49 1008.9
20260504182959 70 109 1.0 4.0 0.00 0.00 0.00 52 1009.0
20260504181500 69 67 1.0 3.0 0.00 0.00 0.00 52 1009.3
20260504175959 69 172 2.0 5.0 0.00 0.00 0.00 54 1009.6
20260504174500 70 192 1.0 2.0 0.00 0.00 0.00 50 1009.5
20260504171459 69 100 0.0 0.0 0.00 0.00 0.00 53 1009.9